Palmer, AK

10:43 AM AKDT on August 25, 2016 (GMT -0800)
Palmer Municipal

Weather History for PAAQ - May, 2013

Change the Weather History Date:

Friday, May 24, 2013

  Actual Average Record
Temperature  
Mean Temperature 56 °F -  
Max Temperature 68 °F 60 °F 76 °F (1960)
Min Temperature 43 °F 39 °F 31 °F (1951)
Degree Days  
Heating Degree Days 10    
Growing Degree Days 6 (Base 50)    
Moisture  
Dew Point 37 °F    
Average Humidity 54    
Maximum Humidity 80    
Minimum Humidity 32    
Precipitation  
Precipitation 0.00 in - - ()
Sea Level Pressure  
Sea Level Pressure 30.02 in    
Wind  
Wind Speed 5 mph (SE)    
Max Wind Speed 14 mph    
Max Gust Speed -    
Visibility 10 miles    
Events      
Averages and records for this station are not official NWS values.
T = Trace of Precipitation, MM = Missing Value Source: NWS Daily Summary

Daily Weather History Graph

Daily Weather History Graph

Search for Another Location

Airport or City:

Trip Planner

Search our weather history database for the weather conditions in past years. The results will help you decide how hot, cold, wet, or windy it might be!

Date:

Astronomy

May. 24, 2013 Rise Set
Actual Time 4:43 AM AKDT 11:04 PM AKDT
Civil Twilight 3:13 AM AKDT 12:37 AM AKDT
Nautical Twilight Sun does not set Sun does not set
Astronomical Twilight Sun does not set Sun does not set
Moon 10:47 PM AKDT (5/24) 4:44 AM AKDT (5/24)
Length of Visible Light 21h 23m
Length of Day
18h 21m
Full, 100% of the Moon is Illuminated
May 24
Full
May 24
Full
May 31
Last Quarter
Jun 8
New
Jun 16
First Quarter

Hourly Weather History & Observations

Time (AKDT) Temp. Windchill Dew Point Humidity Pressure Visibility Wind Dir Wind Speed Gust Speed Precip Events Conditions
12:53 AM 46.0 °F 43.9 °F 37.9 °F 73% 30.09 in 10.0 mi North 4.6 mph - N/A   Overcast
1:53 AM 44.1 °F 42.5 °F 37.0 °F 76% 30.09 in 10.0 mi NNW 3.5 mph - N/A   Overcast
2:53 AM 43.0 °F 39.5 °F 37.0 °F 80% 30.09 in 10.0 mi North 5.8 mph - N/A   Overcast
3:53 AM 43.0 °F 39.5 °F 37.0 °F 80% 30.08 in 10.0 mi North 5.8 mph - N/A   Overcast
4:53 AM 43.0 °F 40.3 °F 36.0 °F 76% 30.07 in 10.0 mi North 4.6 mph - N/A   Overcast
5:53 AM 43.0 °F 39.5 °F 36.0 °F 76% 30.07 in 10.0 mi North 5.8 mph - N/A   Overcast
6:53 AM 45.0 °F - 37.0 °F 74% 30.07 in 10.0 mi Calm Calm - N/A   Overcast
7:53 AM 46.0 °F 43.9 °F 37.0 °F 71% 30.06 in 10.0 mi SSE 4.6 mph - N/A   Partly Cloudy
8:53 AM 50.0 °F - 37.9 °F 63% 30.05 in 10.0 mi Calm Calm - N/A   Partly Cloudy
9:53 AM 52.0 °F - 37.9 °F 59% 30.04 in 10.0 mi SE 3.5 mph - N/A   Partly Cloudy
10:53 AM 55.9 °F - 37.9 °F 51% 30.03 in 10.0 mi South 5.8 mph - N/A   Partly Cloudy
11:53 AM 57.9 °F - 37.9 °F 47% 30.02 in 10.0 mi ESE 4.6 mph - N/A   Clear
12:53 PM 60.1 °F - 37.9 °F 44% 30.01 in 10.0 mi Variable 3.5 mph - N/A   Clear
1:53 PM 63.0 °F - 37.9 °F 40% 29.99 in 10.0 mi SW 4.6 mph - N/A   Partly Cloudy
2:53 PM 66.0 °F - 37.9 °F 36% 29.98 in 10.0 mi South 4.6 mph - N/A   Partly Cloudy
3:53 PM 66.0 °F - 37.0 °F 34% 29.97 in 10.0 mi Variable 6.9 mph - N/A   Partly Cloudy
4:53 PM 68.0 °F - 37.0 °F 32% 29.97 in 10.0 mi SE 9.2 mph - N/A   Partly Cloudy
5:53 PM 66.9 °F - 37.0 °F 33% 29.96 in 10.0 mi SE 10.4 mph - N/A   Partly Cloudy
6:53 PM 66.0 °F - 36.0 °F 33% 29.96 in 10.0 mi SE 11.5 mph - N/A   Clear
7:53 PM 64.9 °F - 37.0 °F 36% 29.96 in 10.0 mi SE 13.8 mph - N/A   Clear
8:53 PM 63.0 °F - 36.0 °F 37% 29.96 in 10.0 mi SE 11.5 mph - N/A   Clear
9:53 PM 59.0 °F - 36.0 °F 42% 29.97 in 10.0 mi SE 9.2 mph - N/A   Clear
10:53 PM 54.0 °F - 35.1 °F 49% 29.98 in 10.0 mi SE 6.9 mph - N/A   Clear
11:53 PM 52.0 °F - 35.1 °F 53% 29.98 in 10.0 mi Calm Calm - N/A   Clear